Weather History for Orange, MA

Change the Weather History Date:

Monday, November 14, 2011

  Actual Average Record
Temperature  
Mean Temperature 56 °F -  
Max Temperature 61 °F 44 °F 61 °F (2011)
Min Temperature 51 °F 26 °F 12 °F (1996)
Degree Days  
Heating Degree Days 9    
Growing Degree Days 6 (Base 50)    
Moisture  
Dew Point 43 °F    
Average Humidity 60    
Maximum Humidity 78    
Minimum Humidity 49    
Precipitation  
Precipitation 0.00 in - - ()
Sea Level Pressure  
Sea Level Pressure 29.81 in    
Wind  
Wind Speed 8 mph (South)    
Max Wind Speed 12 mph    
Max Gust Speed -    
Visibility 10 miles    
Events      
Averages and records for this station are not official NWS values.
T = Trace of Precipitation, MM = Missing Value Source: NWS Daily Summary

Daily Weather History Graph

Daily Weather History Graph

Search for Another Location

Airport:

Trip Planner

Search our weather history database for the weather conditions in past years. The results will help you decide how hot, cold, wet, or windy it might be!

Date:

Astronomy

Nov. 14, 2011 Rise Set
Actual Time 6:38 AM EST 4:27 PM EST
Civil Twilight 6:08 AM EST 4:58 PM EST
Nautical Twilight 5:34 AM EST 5:32 PM EST
Astronomical Twilight 5:01 AM EST 6:05 PM EST
Moon 7:30 PM EST (11/14) 9:57 AM EST (11/14)
Length of Visible Light 10h 49m
Length of Day
9h 48m
Waning Gibbous, 87% of the Moon is Illuminated
Nov 14
Waning Gibbous
Nov 18
Last Quarter
Nov 25
New
Dec 2
First Quarter
Dec 10
Full

Hourly Weather History & Observations

Time (EST) Temp. Dew Point Humidity Pressure Visibility Wind Dir Wind Speed Gust Speed Precip Events Conditions
12:52 AM 53.1 °F 39.0 °F 59% 29.91 in 10.0 mi South 6.9 mph - N/A   Overcast
1:52 AM 52.0 °F 39.0 °F 61% 29.89 in 10.0 mi SSE 6.9 mph - N/A   Mostly Cloudy
3:52 AM 52.0 °F 39.0 °F 61% 29.88 in 10.0 mi South 8.1 mph - N/A   Overcast
4:52 AM 52.0 °F 37.9 °F 59% 29.88 in 10.0 mi South 6.9 mph - N/A   Overcast
5:52 AM 51.1 °F 37.9 °F 61% 29.88 in 10.0 mi South 8.1 mph - N/A   Mostly Cloudy
7:52 AM 51.1 °F 37.9 °F 61% 29.88 in 10.0 mi South 10.4 mph - N/A   Clear
8:52 AM 54.0 °F 37.9 °F 55% 29.87 in 10.0 mi South 9.2 mph - N/A   Clear
9:52 AM 55.9 °F 37.9 °F 51% 29.86 in 10.0 mi South 11.5 mph - N/A   Clear
10:52 AM 57.9 °F 39.0 °F 49% 29.86 in 10.0 mi South 11.5 mph - N/A   Mostly Cloudy
11:52 AM 59.0 °F 39.9 °F 49% 29.84 in 10.0 mi South 10.4 mph - N/A   Partly Cloudy
12:52 PM 60.1 °F 41.0 °F 49% 29.81 in 10.0 mi South 11.5 mph - N/A   Clear
1:52 PM 60.1 °F 43.0 °F 53% 29.81 in 10.0 mi South 6.9 mph - 0.00 in   Overcast
2:52 PM 61.0 °F 44.1 °F 54% 29.80 in 10.0 mi SSW 9.2 mph - N/A   Overcast
3:52 PM 60.1 °F 44.1 °F 55% 29.79 in 10.0 mi South 8.1 mph - N/A   Overcast
4:52 PM 59.0 °F 45.0 °F 60% 29.78 in 10.0 mi South 11.5 mph - N/A   Overcast
5:52 PM 59.0 °F 46.0 °F 62% 29.77 in 10.0 mi South 8.1 mph - N/A   Overcast
6:52 PM 57.9 °F 46.0 °F 65% 29.76 in 10.0 mi South 8.1 mph - N/A   Overcast
8:52 PM 57.0 °F 46.9 °F 69% 29.73 in 10.0 mi South 5.8 mph - N/A   Scattered Clouds
9:52 PM 57.0 °F 48.9 °F 74% 29.72 in 10.0 mi South 8.1 mph - N/A   Overcast
10:52 PM 57.9 °F 51.1 °F 78% 29.67 in 10.0 mi South 6.9 mph - N/A   Overcast
11:52 PM 57.9 °F 51.1 °F 78% 29.71 in 10.0 mi SSW 4.6 mph - N/A   Mostly Cloudy